Location: �chenoz-la-M�line
(47.6009°N, 6.1354°E)
Time: 12:42:28
(UTC+00:00)

Cosmos 1602 Rocket - Pass Details

Date: 27 January 2021
Orbit: 604 x 632 km, 82.5° (Epoch: 03 March)

Event Time Altitude Azimuth Distance (km) Brightness Sun altitude
Exits shadow 04:40:24 34° 2° (N) 1,058 4.7 -24.8°
Maximum altitude 04:42:19 73° 80° (E) 666 3.7 -24.5°
Drops below altitude 10° 04:46:46 10° 165° (SSE) 2,011 6.4 -23.7°
Sets 04:49:01 0° 167° (SSE) 2,914 7.2 -23.4°
